Volver al catálogo

STARLINK-11271

ActivoComunicacionesVLEO
NORAD 60915·PAYLOAD·🇺🇸 United States

Lanzado Aug 31, 2024 desde Cape Canaveral Space Force Station

Loading…

Próximos Pases (próximas 24 horas)

TLE

ActualizadoSource: CelesTrak SupGP

Época: Sep 15, 2026, 02:31 UTC

1 60915C 24154N   26258.10534722  .00053537  00000+0  44059-3 0  2589
2 60915  53.1571 277.3074 0001102  95.8855  25.8771 15.69704760    15

Sigue STARLINK-11271 en tiempo real con AllMySat

Download on the App Store